EW9273 Weather Reports


Display with metric or nautical units.
time (UTC)temp
F
wind
direction
speed
MPH
gust
MPH
rain 1hr
in
rain 24hr
in
rain mn
in
humidity
%
barometer
mb
20260510054510 76 195 0.0 2.0 0.00 0.01 0.00 70 1008.4
20260510054007 76 195 0.0 3.0 0.00 0.01 0.00 70 1008.4
20260510053507 76 150 0.0 2.0 0.00 0.01 0.00 70 1008.4
20260510053005 76 113 0.0 3.0 0.00 0.01 0.00 70 1008.3
20260510052505 76 161 0.0 3.0 0.00 0.01 0.00 70 1008.2
20260510052004 77 161 0.0 7.0 0.00 0.01 0.00 70 1008.2
20260510051504 77 161 1.0 7.0 0.00 0.01 0.00 69 1008.1
20260510051002 77 170 3.0 6.0 0.00 0.01 0.00 69 1008.1
20260510050502 77 177 3.0 6.0 0.00 0.01 0.00 69 1008.0
20260510050001 77 163 2.0 7.0 0.00 0.01 0.00 69 1008.0
20260510045600 78 167 3.0 7.0 0.00 0.01 0.01 69 1007.9
20260510045100 78 175 3.0 8.0 0.00 0.01 0.01 68 1007.9
20260510044600 78 156 2.0 8.0 0.00 0.01 0.01 68 1007.8
20260510044102 78 204 2.0 8.0 0.00 0.01 0.01 68 1007.8
20260510043559 78 174 2.0 8.0 0.00 0.01 0.01 67 1007.8
20260510043101 79 157 3.0 8.0 0.00 0.01 0.01 67 1007.9
20260510042600 79 140 1.0 6.0 0.00 0.01 0.01 67 1007.9
20260510042101 79 167 2.0 6.0 0.00 0.01 0.01 67 1007.9
20260510041609 79 175 1.0 6.0 0.00 0.01 0.01 67 1007.9
20260510041059 79 148 1.0 4.0 0.00 0.01 0.01 67 1007.9
20260510040559 79 94 1.0 4.0 0.00 0.01 0.01 67 1007.8
20260510040113 79 58 0.0 2.0 0.00 0.01 0.01 67 1007.9
20260510035558 79 171 0.0 4.0 0.00 0.01 0.01 67 1007.8
20260510035100 79 155 1.0 4.0 0.00 0.01 0.01 67 1007.7
20260510034558 80 198 1.0 4.0 0.00 0.01 0.01 66 1007.6
20260510034058 80 64 0.0 1.0 0.00 0.01 0.01 66 1007.4
20260510033557 80 64 0.0 1.0 0.00 0.01 0.01 66 1007.3
20260510033104 80 149 0.0 2.0 0.00 0.01 0.01 66 1007.3
20260510032600 80 149 0.0 2.0 0.00 0.01 0.01 66 1007.2
20260510032057 80 145 0.0 2.0 0.00 0.01 0.01 66 1007.2
20260510031603 80 175 0.0 2.0 0.00 0.01 0.01 65 1007.1
20260510031057 81 175 0.0 2.0 0.00 0.01 0.01 65 1007.2
20260510030558 81 122 0.0 3.0 0.00 0.01 0.01 66 1007.1
20260510025556 81 152 0.0 2.0 0.00 0.01 0.01 66 1007.0
20260510025058 81 90 0.0 2.0 0.00 0.01 0.01 66 1006.9
20260510024557 81 69 0.0 2.0 0.00 0.01 0.01 66 1006.9
20260510024055 81 69 0.0 2.0 0.00 0.01 0.01 65 1006.9
20260510023555 81 69 0.0 1.0 0.00 0.01 0.01 65 1006.8
20260510023055 81 69 0.0 1.0 0.00 0.01 0.01 65 1006.7
20260510022559 81 69 0.0 2.0 0.00 0.01 0.01 64 1006.7
20260510022055 81 69 0.0 2.0 0.00 0.01 0.01 64 1006.7
20260510021645 82 69 0.0 2.0 0.00 0.01 0.01 64 1006.7
20260510021055 82 69 0.0 2.0 0.00 0.01 0.01 63 1006.6
20260510020555 82 69 0.0 2.0 0.00 0.01 0.01 62 1006.6
20260510020100 82 69 0.0 2.0 0.00 0.01 0.01 61 1006.6
20260510015556 83 39 0.0 2.0 0.00 0.01 0.01 61 1006.4
20260510015056 83 80 0.0 3.0 0.00 0.01 0.01 60 1006.4
20260510014559 83 81 1.0 3.0 0.00 0.01 0.01 59 1006.3
20260510014055 84 154 0.0 2.0 0.00 0.01 0.01 58 1006.2
20260510013555 84 154 0.0 2.0 0.00 0.01 0.01 57 1006.1
20260510013102 84 154 0.0 2.0 0.00 0.01 0.01 56 1006.1
20260510012553 84 154 0.0 2.0 0.00 0.01 0.01 55 1006.0
20260510012054 85 190 0.0 2.0 0.00 0.01 0.01 54 1005.9
20260510011553 85 204 0.0 6.0 0.00 0.01 0.01 54 1005.9
20260510011054 85 109 1.0 5.0 0.00 0.01 0.01 53 1005.9
20260510010553 86 115 1.0 3.0 0.00 0.01 0.01 52 1005.8
20260510010058 86 44 1.0 3.0 0.00 0.01 0.01 52 1005.8
20260510005554 86 155 1.0 4.0 0.00 0.01 0.01 52 1005.7
20260510005052 86 117 0.0 5.0 0.00 0.01 0.01 51 1005.7
20260510004552 87 135 1.0 9.0 0.00 0.01 0.01 49 1005.7
20260510004052 87 157 3.0 9.0 0.00 0.01 0.01 50 1005.6
20260510003553 87 124 1.0 8.0 0.00 0.01 0.01 51 1005.6
20260510003052 88 186 2.0 10.0 0.00 0.01 0.01 50 1005.5
20260510002555 88 159 3.0 10.0 0.00 0.01 0.01 49 1005.4
20260510002051 88 152 2.0 7.0 0.00 0.01 0.01 49 1005.3
20260510001551 89 158 3.0 7.0 0.00 0.01 0.01 48 1005.3
20260510001051 89 69 1.0 6.0 0.00 0.01 0.01 47 1005.2
20260510000550 89 184 1.0 11.0 0.00 0.01 0.01 49 1005.1
20260510000051 89 225 1.0 11.0 0.00 0.01 0.01 49 1005.1
20260509235652 89 112 2.0 8.0 0.00 0.01 0.01 48 1005.0
20260509235049 90 169 3.0 8.0 0.00 0.01 0.01 48 1004.9
20260509234549 90 120 3.0 8.0 0.00 0.01 0.01 47 1004.8
20260509234049 90 163 4.0 11.0 0.00 0.01 0.01 48 1004.6
20260509233550 90 190 5.0 12.0 0.00 0.01 0.01 48 1004.7
20260509233048 90 184 5.0 12.0 0.00 0.01 0.01 48 1004.7
20260509232548 90 250 3.0 10.0 0.00 0.01 0.01 49 1004.6
20260509232048 90 149 6.0 10.0 0.00 0.01 0.01 48 1004.8
20260509231548 90 163 2.0 7.0 0.00 0.01 0.01 48 1005.0
20260509231045 90 157 1.0 7.0 0.00 0.01 0.01 49 1005.2
20260509230545 90 71 2.0 6.0 0.00 0.01 0.01 49 1005.2
20260509230048 90 165 2.0 6.0 0.00 0.01 0.01 49 1005.2
20260509225546 90 132 2.0 9.0 0.00 0.01 0.01 49 1005.2
20260509225043 90 118 3.0 9.0 0.00 0.01 0.01 49 1005.2
20260509224543 91 148 4.0 10.0 0.00 0.01 0.01 49 1005.3
20260509224044 90 159 3.0 10.0 0.00 0.01 0.01 49 1005.2
20260509223544 91 156 4.0 8.0 0.00 0.01 0.01 49 1005.2
20260509223044 91 222 3.0 8.0 0.00 0.01 0.01 49 1005.1
20260509222545 90 204 1.0 9.0 0.00 0.01 0.01 49 1005.0
20260509222043 90 167 4.0 9.0 0.00 0.01 0.01 49 1005.0
20260509221543 91 160 4.0 10.0 0.00 0.01 0.01 49 1005.1
20260509221042 91 249 3.0 9.0 0.00 0.01 0.01 48 1005.0
20260509220542 91 236 1.0 8.0 0.00 0.01 0.01 48 1005.0
20260509220043 92 196 4.0 10.0 0.00 0.01 0.01 47 1005.1
20260509215542 92 237 3.0 11.0 0.00 0.01 0.01 48 1005.2
20260509215042 91 240 2.0 6.0 0.00 0.01 0.01 49 1005.2
20260509214542 91 142 1.0 8.0 0.00 0.01 0.01 49 1005.2
20260509214040 91 132 3.0 8.0 0.00 0.01 0.01 49 1005.3
20260509213541 91 181 2.0 6.0 0.00 0.01 0.01 50 1005.2
20260509213043 90 102 2.0 8.0 0.00 0.01 0.01 51 1005.4
20260509212539 91 186 3.0 9.0 0.00 0.01 0.01 49 1005.4
20260509212039 91 148 1.0 9.0 0.00 0.01 0.01 48 1005.4
20260509211539 91 88 3.0 10.0 0.00 0.01 0.01 49 1005.5
20260509211038 91 165 4.0 10.0 0.00 0.01 0.01 49 1005.5
20260509210540 92 259 3.0 8.0 0.00 0.01 0.01 48 1005.6
20260509210044 92 255 2.0 9.0 0.00 0.01 0.01 48 1005.7
20260509205537 91 277 4.0 11.0 0.00 0.01 0.01 49 1005.7
20260509205036 91 213 5.0 11.0 0.00 0.01 0.01 49 1005.7
20260509204535 91 182 3.0 8.0 0.00 0.01 0.01 48 1005.8
20260509204034 90 275 3.0 9.0 0.00 0.01 0.01 49 1005.9
20260509203533 91 148 3.0 10.0 0.00 0.01 0.01 49 1006.1
20260509203034 90 184 3.0 10.0 0.00 0.01 0.01 48 1006.1
20260509202537 92 208 3.0 8.0 0.00 0.01 0.01 47 1006.2
20260509202035 91 211 3.0 10.0 0.00 0.01 0.01 45 1006.3
20260509201533 90 226 3.0 10.0 0.00 0.01 0.01 47 1006.3
20260509201029 90 230 4.0 9.0 0.00 0.01 0.01 49 1006.4
20260509200532 89 207 1.0 8.0 0.00 0.01 0.01 51 1006.5
20260509200028 90 153 3.0 8.0 0.00 0.01 0.01 52 1006.6
20260509195529 91 178 2.0 11.0 0.00 0.01 0.01 49 1006.7
20260509195025 91 233 5.0 11.0 0.00 0.01 0.01 48 1006.8
20260509194537 92 264 3.0 7.0 0.00 0.01 0.01 48 1006.9
20260509194026 90 192 1.0 9.0 0.00 0.01 0.01 53 1007.0
20260509193527 90 144 4.0 9.0 0.00 0.01 0.01 52 1007.2
20260509193025 91 225 5.0 10.0 0.00 0.01 0.01 51 1007.3
20260509192524 89 154 1.0 10.0 0.00 0.01 0.01 54 1007.3
20260509192026 88 318 4.0 9.0 0.00 0.01 0.01 55 1007.4
20260509191525 88 99 2.0 9.0 0.00 0.01 0.01 56 1007.4
20260509191025 87 148 3.0 6.0 0.00 0.01 0.01 55 1007.4
20260509190525 88 215 3.0 9.0 0.00 0.01 0.01 54 1007.5
20260509190026 89 274 4.0 9.0 0.00 0.01 0.01 54 1007.5
20260509185524 89 305 1.0 11.0 0.00 0.01 0.01 54 1007.5
20260509185022 90 262 4.0 12.0 0.00 0.01 0.01 53 1007.5
20260509184527 89 259 6.0 12.0 0.00 0.01 0.01 54 1007.6
20260509184020 89 302 1.0 9.0 0.00 0.01 0.01 56 1007.6
20260509183520 88 154 2.0 9.0 0.00 0.01 0.01 55 1007.7
20260509183020 88 219 3.0 9.0 0.00 0.01 0.01 55 1007.8
20260509182518 88 258 4.0 9.0 0.00 0.01 0.01 57 1007.9
20260509182018 86 130 3.0 10.0 0.00 0.01 0.01 58 1007.9
20260509181518 87 235 5.0 10.0 0.00 0.01 0.01 58 1007.9
20260509181018 86 265 7.0 10.0 0.00 0.01 0.01 61 1008.0
20260509180518 87 155 2.0 7.0 0.00 0.01 0.01 60 1008.1
20260509180016 85 153 3.0 8.0 0.00 0.01 0.01 62 1008.2
20260509175515 85 150 1.0 9.0 0.00 0.01 0.01 61 1008.2
20260509175015 85 263 3.0 9.0 0.00 0.01 0.01 62 1008.1
20260509174515 86 144 5.0 10.0 0.00 0.01 0.01 61 1008.3
20260509174014 86 233 1.0 7.0 0.00 0.01 0.01 65 1008.3
20260509173512 85 281 2.0 11.0 0.00 0.01 0.01 64 1008.4
20260509173015 85 229 4.0 11.0 0.00 0.01 0.01 65 1008.5
20260509172513 84 214 4.0 10.0 0.00 0.01 0.01 67 1008.4
20260509172010 84 220 1.0 10.0 0.00 0.01 0.01 68 1008.5
20260509171509 84 273 4.0 9.0 0.00 0.01 0.01 69 1008.5
20260509171008 83 242 3.0 11.0 0.00 0.01 0.01 69 1008.6
20260509170507 83 242 3.0 11.0 0.00 0.01 0.01 70 1008.7
20260509170007 84 243 5.0 10.0 0.00 0.01 0.01 70 1008.7
20260509165504 83 252 3.0 9.0 0.00 0.01 0.01 72 1008.7
20260509165007 82 327 4.0 9.0 0.00 0.01 0.01 72 1008.7
20260509164502 82 296 5.0 9.0 0.00 0.01 0.01 72 1008.7
20260509164001 82 220 5.0 12.0 0.00 0.01 0.01 72 1008.7
20260509163559 81 185 4.0 12.0 0.00 0.01 0.01 73 1008.6
20260509163104 81 235 5.0 12.0 0.00 0.01 0.01 72 1008.5
20260509162558 81 251 5.0 12.0 0.00 0.01 0.01 71 1008.4
20260509162057 81 243 6.0 12.0 0.00 0.01 0.01 71 1008.4
20260509161603 80 258 2.0 9.0 0.00 0.01 0.01 74 1008.3
20260509161053 80 259 5.0 9.0 0.00 0.01 0.01 74 1008.5
20260509160552 79 227 4.0 11.0 0.00 0.01 0.01 77 1008.4
20260509160051 79 207 4.0 12.0 0.00 0.01 0.01 78 1008.5
20260509155549 79 222 3.0 12.0 0.00 0.01 0.01 79 1008.6
20260509155048 78 225 4.0 8.0 0.00 0.01 0.01 80 1008.6
20260509154550 78 223 3.0 9.0 0.00 0.01 0.01 84 1008.9
20260509154045 77 255 4.0 9.0 0.00 0.01 0.01 87 1008.9
20260509153543 75 267 2.0 8.0 0.00 0.01 0.01 91 1008.8
20260509153055 74 261 3.0 8.0 0.00 0.01 0.01 94 1008.9
20260509152542 72 268 4.0 6.0 0.00 0.01 0.01 95 1009.0
20260509152041 72 262 2.0 8.0 0.00 0.01 0.01 96 1009.1
20260509151541 72 261 4.0 8.0 0.00 0.01 0.01 95 1009.3
20260509151039 72 220 0.0 3.0 0.00 0.01 0.01 96 1009.4
20260509150539 72 241 0.0 3.0 0.00 0.01 0.01 95 1009.5
20260509150039 73 121 0.0 5.0 0.00 0.01 0.01 96 1009.3
20260509145540 73 138 2.0 7.0 0.00 0.01 0.01 96 1009.2
20260509145037 73 149 3.0 7.0 0.00 0.01 0.01 95 1009.3
20260509144541 73 163 1.0 7.0 0.00 0.01 0.01 96 1009.3
20260509144034 73 163 3.0 7.0 0.00 0.01 0.01 95 1009.4
20260509143537 73 152 0.0 3.0 0.00 0.01 0.01 95 1009.4
20260509143035 73 152 0.0 3.0 0.00 0.01 0.01 95 1009.5
20260509142533 73 145 1.0 3.0 0.00 0.01 0.01 95 1009.4
20260509142033 73 121 0.0 2.0 0.00 0.01 0.01 95 1009.4
20260509141539 73 225 0.0 3.0 0.00 0.01 0.01 95 1009.6
20260509141032 72 159 1.0 5.0 0.00 0.01 0.01 95 1009.4
20260509140532 72 156 0.0 5.0 0.00 0.01 0.01 95 1009.3
20260509140036 72 164 0.0 2.0 0.00 0.01 0.01 95 1009.4
20260509135530 72 164 0.0 3.0 0.00 0.01 0.01 95 1009.2
20260509135030 72 164 0.0 3.0 0.00 0.01 0.01 95 1008.9
20260509134530 72 342 0.0 0.0 0.00 0.01 0.01 95 1008.6
20260509134029 72 342 0.0 2.0 0.00 0.01 0.01 95 1008.0
20260509133529 72 342 0.0 2.0 0.00 0.01 0.01 95 1007.8
20260509133029 72 342 0.0 2.0 0.00 0.01 0.01 94 1007.7
20260509132531 72 277 0.0 3.0 0.01 0.01 0.01 94 1007.8
20260509132028 72 198 0.0 4.0 0.01 0.01 0.01 94 1007.8
20260509131528 72 88 0.0 4.0 0.01 0.01 0.01 94 1008.0
20260509131031 72 51 1.0 5.0 0.01 0.01 0.01 94 1008.4
20260509130532 72 62 1.0 6.0 0.01 0.01 0.01 94 1008.5
20260509130028 72 64 1.0 5.0 0.01 0.01 0.01 94 1008.6
20260509125529 72 68 1.0 4.0 0.01 0.01 0.01 94 1008.8
20260509125026 72 78 1.0 3.0 0.01 0.01 0.01 94 1009.1
20260509124526 72 79 1.0 3.0 0.01 0.01 0.01 94 1009.1
20260509124026 72 355 0.0 3.0 0.01 0.01 0.01 94 1008.9
20260509123525 72 57 1.0 6.0 0.01 0.01 0.01 93 1008.9
20260509123024 72 343 2.0 6.0 0.01 0.01 0.01 93 1008.9
20260509122522 72 30 2.0 4.0 0.00 0.00 0.00 93 1008.9
20260509122020 72 71 1.0 4.0 0.00 0.00 0.00 93 1009.0
20260509121520 72 55 1.0 4.0 0.00 0.00 0.00 93 1009.0
20260509121018 72 342 2.0 10.0 0.00 0.00 0.00 93 1009.1
20260509120516 72 22 2.0 10.0 0.00 0.00 0.00 93 1009.0
20260509120015 72 22 1.0 9.0 0.00 0.00 0.00 93 1009.0
20260509115513 72 340 3.0 9.0 0.00 0.00 0.00 93 1008.8
20260509115012 72 5 1.0 4.0 0.00 0.00 0.00 93 1008.7
20260509114510 72 360 1.0 4.0 0.00 0.00 0.00 93 1008.6
20260509114009 72 336 1.0 5.0 0.00 0.00 0.00 92 1008.5
20260509113507 72 327 2.0 5.0 0.00 0.00 0.00 92 1008.2
20260509113006 72 43 0.0 3.0 0.00 0.00 0.00 92 1008.0
20260509112504 72 43 1.0 4.0 0.00 0.00 0.00 92 1007.9
20260509112003 72 23 1.0 4.0 0.00 0.00 0.00 92 1007.9
20260509111504 72 336 0.0 3.0 0.00 0.00 0.00 92 1008.0
20260509111101 72 336 0.0 3.0 0.00 0.00 0.00 92 1007.8
20260509110559 72 336 0.0 4.0 0.00 0.00 0.00 92 1007.8
20260509110502 72 336 1.0 4.0 0.00 0.00 0.00 92 1007.9
20260509110058 72 45 0.0 4.0 0.00 0.00 0.00 92 1007.8
20260509105556 72 57 2.0 4.0 0.00 0.00 0.00 91 1007.8
20260509105054 72 40 0.0 3.0 0.00 0.00 0.00 91 1007.9
20260509104557 72 68 0.0 4.0 0.00 0.00 0.00 91 1008.0
20260509104051 72 68 2.0 4.0 0.00 0.00 0.00 91 1007.9
20260509103550 72 66 0.0 3.0 0.00 0.00 0.00 91 1008.1
20260509103058 72 66 1.0 5.0 0.00 0.00 0.00 91 1008.1
20260509102547 72 66 1.0 5.0 0.00 0.00 0.00 91 1008.1
20260509102046 72 34 1.0 4.0 0.00 0.00 0.00 91 1008.1
20260509101545 72 36 1.0 4.0 0.00 0.00 0.00 91 1008.4
20260509101043 72 52 0.0 4.0 0.00 0.00 0.00 90 1008.2
20260509100544 72 61 2.0 4.0 0.00 0.00 0.00 90 1008.2
20260509100043 72 26 1.0 4.0 0.00 0.00 0.00 90 1008.2
20260509095544 72 57 0.0 6.0 0.00 0.00 0.00 90 1007.9
20260509095042 72 39 2.0 6.0 0.00 0.00 0.00 90 1007.6
20260509094553 72 74 0.0 3.0 0.00 0.00 0.00 90 1007.5
20260509094042 72 69 1.0 3.0 0.00 0.00 0.00 90 1007.4
20260509093541 72 5 0.0 3.0 0.00 0.00 0.00 90 1007.3
20260509093041 72 59 1.0 3.0 0.00 0.00 0.00 89 1007.2
20260509092544 72 59 0.0 3.0 0.00 0.00 0.00 89 1007.0
20260509092043 72 28 1.0 3.0 0.00 0.00 0.00 89 1007.0
20260509091548 72 34 0.0 2.0 0.00 0.00 0.00 89 1006.9
20260509091037 72 34 0.0 3.0 0.00 0.00 0.00 89 1006.9
20260509090536 72 339 0.0 2.0 0.00 0.00 0.00 89 1007.0
20260509090039 72 339 0.0 2.0 0.00 0.00 0.00 89 1007.2
20260509085536 72 339 0.0 0.0 0.00 0.00 0.00 89 1007.1
20260509085035 72 339 0.0 3.0 0.00 0.00 0.00 89 1007.1
20260509084533 72 339 0.0 3.0 0.00 0.00 0.00 89 1007.1
20260509084030 72 339 0.0 1.0 0.00 0.00 0.00 88 1006.8
20260509083530 72 339 0.0 3.0 0.00 0.00 0.00 88 1006.9
20260509083030 72 339 1.0 3.0 0.00 0.00 0.00 88 1007.1
20260509082533 72 67 0.0 3.0 0.00 0.00 0.00 88 1006.9
20260509082029 72 77 0.0 4.0 0.00 0.00 0.00 88 1006.8
20260509081529 73 82 2.0 4.0 0.00 0.00 0.00 88 1007.3
20260509081028 72 20 0.0 3.0 0.00 0.00 0.00 88 1007.6
20260509080531 73 42 0.0 6.0 0.00 0.00 0.00 88 1007.3
20260509080026 73 157 2.0 8.0 0.00 0.00 0.00 88 1007.2
20260509075524 73 146 3.0 8.0 0.00 0.00 0.00 88 1007.4
20260509075024 73 154 1.0 7.0 0.00 0.00 0.00 87 1007.5
20260509074523 73 167 1.0 7.0 0.00 0.00 0.00 87 1007.7
20260509074025 73 215 0.0 4.0 0.00 0.00 0.00 87 1007.6
20260509073521 73 174 0.0 5.0 0.00 0.00 0.00 87 1007.1
20260509073033 73 153 0.0 4.0 0.00 0.00 0.00 87 1007.0
20260509072519 73 158 1.0 6.0 0.00 0.00 0.00 87 1007.2
20260509072017 73 163 1.0 6.0 0.00 0.00 0.00 87 1007.7
20260509071516 73 138 2.0 7.0 0.00 0.00 0.00 87 1007.7
20260509071016 73 161 4.0 9.0 0.00 0.00 0.00 86 1007.7
20260509070516 73 174 1.0 6.0 0.00 0.00 0.00 86 1007.6
20260509070014 73 157 1.0 5.0 0.00 0.00 0.00 86 1007.6
20260509065511 73 132 0.0 5.0 0.00 0.00 0.00 86 1007.7
20260509065010 73 185 0.0 3.0 0.00 0.00 0.00 86 1007.9
20260509064512 73 185 0.0 2.0 0.00 0.00 0.00 86 1007.9
20260509064011 73 185 0.0 2.0 0.00 0.00 0.00 86 1008.0
20260509063505 73 185 0.0 2.0 0.00 0.00 0.00 85 1008.0
20260509063008 73 185 0.0 1.0 0.00 0.00 0.00 85 1008.0
20260509062503 73 185 0.0 1.0 0.00 0.00 0.00 85 1008.1
20260509062004 73 185 0.0 3.0 0.00 0.00 0.00 85 1008.0
20260509061601 73 185 0.0 3.0 0.00 0.00 0.00 85 1008.0
20260509061058 73 185 0.0 2.0 0.00 0.00 0.00 85 1008.0
20260509060558 73 185 0.0 2.0 0.00 0.00 0.00 85 1008.0
20260509060112 73 185 0.0 2.0 0.00 0.00 0.00 85 1007.9
20260509055555 73 185 0.0 2.0 0.00 0.00 0.00 85 1007.9
20260509055053 73 185 0.0 3.0 0.00 0.00 0.00 85 1008.0